Home   Weather   Bad Nauheim   Past weeks

Flag for Germany Past Weather in Bad Nauheim, Hesse, Germany — Yesterday and Last 2 Weeks

Now
54 °F

Fog.


Feels Like: 54 °F
Forecast: 55 / 72 °F
Wind: 2 mph from Southwest

Location: Frankfurt-M-Flughafen Airport

Current Time: Sep 28, 2016 at 5:29:10 AM

Latest Report: Sep 28, 2016 at 4:50 AM


Visibility: 0 mi

Pressure: 30.33 "Hg

Humidity: 94%

Dew Point: 52 °F

Location of Bad NauheimLocation

Past Weather in Bad Nauheim — Graph

°F

Bad Nauheim Temperature Yesterday

Maximum temperature yesterday: 72 °F (at 2:20 PM)
Minimum temperature yesterday: 54 °F (at 11:50 PM)
Average temperature yesterday: 63 °F

High & Low Weather Summary for the Past Weeks

 TemperatureHumidityPressure
High91 °F (Sep 13, 4:20 PM)100% (Sep 17, 6:20 AM)30.33 "Hg (Sep 17, 6:20 AM)
Low46 °F (Sep 21, 7:20 AM)26% (Sep 13, 6:20 PM)29.83 "Hg (Sep 15, 3:50 AM)
Average64 °F69%30.07 "Hg
* Reported Sep 13 4:20 AM — Sep 28 4:20 AM, Bad Nauheim, Weather by CustomWeather, © 2016

Note: Actual official high and low records may vary slightly from our data, if they occured in-between our weather recording intervals... More about our weather records

Advertising

Bad Nauheim Weather History for the Previous 24 Hours

Scroll right to see more
 ConditionsComfort  
Time TempWeatherWind HumidityBarometerVisibility
4:20 AM
Wed, Sep 28
52 °FFog.2 mph100%30.33 "Hg0 mi
3:50 AM52 °FFog.3 mph94%30.33 "Hg1 mi
3:20 AM52 °FClear.3 mph94%30.33 "Hg4 mi
2:20 AM52 °FCool.5 mph94%30.33 "HgN/A
1:50 AM52 °FFog.2 mph94%30.33 "Hg6 mi
1:20 AM52 °FFog.2 mph100%30.33 "HgN/A
12:50 AM54 °FFog.3 mph94%30.33 "HgN/A
12:20 AM54 °FFog.1 mph94%30.33 "HgN/A
11:50 PM
Tue, Sep 27
54 °FFog.1 mph100%30.33 "HgN/A
11:20 PM55 °FFog.2 mph94%30.33 "HgN/A
10:50 PM55 °FClear.2 mph94%30.33 "Hg10 mi
10:20 PM55 °FClear.3 mph94%30.33 "Hg10 mi
9:50 PM57 °FLight fog.2 mph94%30.33 "HgN/A
9:20 PM59 °FClear.1 mph88%30.33 "Hg10 mi
8:50 PM59 °FClear.2 mph88%30.33 "Hg10 mi
8:20 PM61 °FClear.1 mph83%30.33 "Hg10 mi
7:50 PM63 °FClear.5 mph77%30.30 "Hg10 mi
7:20 PM64 °FPassing clouds.5 mph73%30.30 "HgN/A
6:50 PM66 °FPassing clouds.5 mph73%30.30 "HgN/A
6:20 PM70 °FPassing clouds.6 mph60%30.30 "HgN/A
5:50 PM72 °FPassing clouds.5 mph57%30.30 "HgN/A
5:20 PM72 °FPassing clouds.6 mph57%30.30 "HgN/A
4:50 PM72 °FPassing clouds.5 mph57%30.30 "HgN/A
4:20 PM72 °FPassing clouds.5 mph53%30.30 "HgN/A
3:50 PM70 °FPassing clouds.5 mph57%30.30 "HgN/A
3:20 PM70 °FPassing clouds.5 mph57%30.30 "HgN/A
2:50 PM70 °FScattered clouds.6 mph60%30.30 "HgN/A
2:20 PM72 °FPassing clouds.3 mph53%30.30 "HgN/A
1:50 PM70 °FScattered clouds.3 mph60%30.30 "HgN/A
1:20 PM68 °FScattered clouds.6 mph64%30.30 "HgN/A
12:50 PM68 °FPassing clouds.5 mph64%30.30 "HgN/A
12:20 PM66 °FScattered clouds.6 mph68%30.30 "HgN/A
11:50 AM66 °FPartly sunny.5 mph64%30.30 "HgN/A
11:20 AM64 °FPartly sunny.3 mph68%30.30 "HgN/A
10:50 AM64 °FPartly sunny.5 mph68%30.30 "HgN/A
10:20 AM64 °FPartly sunny.9 mph68%30.30 "HgN/A
9:50 AM63 °FScattered clouds.8 mph73%30.30 "HgN/A
9:20 AM61 °FBroken clouds.3 mph77%30.27 "HgN/A
8:50 AM61 °FPartly sunny.3 mph77%30.27 "HgN/A
8:20 AM59 °FPartly sunny.3 mph88%30.27 "HgN/A
7:50 AM57 °FPartly sunny.6 mph88%30.24 "HgN/A
7:20 AM57 °FPartly sunny.2 mph88%30.24 "HgN/A
6:50 AM59 °FPassing clouds.5 mph82%30.24 "HgN/A
6:20 AM59 °FPartly cloudy.6 mph82%30.24 "HgN/A
5:50 AM57 °FPartly cloudy.5 mph88%30.21 "HgN/A
5:20 AM59 °FPassing clouds.3 mph82%30.21 "HgN/A
Weather by CustomWeather, © 2016

See weather overviewHow to use our weather pages